Погода в Зимовники

Поиск расширенной информации на нашем сайте:

Полезная информация:

Новости сайта



02.01.2020
Опубликован Долгосрочный прогноз погоды по городам России и ближнего зарубежья на январь 2020 года.
Карты: Прогноз на январь и февраль 2020 года, Сравнение прогнозируемой аномалии приземной температуры воздуха на январь 2020 года по разным моделям.




Погода в Зимовники - сегодня

Время (UTC), дата Ветер
(°,м/с) 
Видим.   Явления Облачность Т
(°С)
Тd
(°С)
f(%) Тe
(°С)
Pmin
(гПа)
dP
(гПа)
Po
(мм)
O2
(г/м3)
Тmin Tmax R s Состояние
почвы
12 18.10.20 250 (З) 10 км    10/0 средняя, верхняя 
[Ac trans|Ci fib]
+24.6 +8.5 36 +25  1013.5  -0.1  754  277           
15 18.10.20 290 (З) 10 км    9/0 верхняя 
[Cs]
+24.6 +3.3 25 +25  1007.7  -0.2  750  277    +28.3       
18 18.10.20 тихо ()   10 км    ясно 
+15.7 +10.7 72 +18  1014.7  0.4  755  286           
21 18.10.20 тихо ()   4000 м  гроза, ливневой дождь  10/5 600 м кучево-дожд., средняя 
[Cb calv|Ac und]
+14.4 +13.3 93 +20  1015.7  0.9  755  286           
00 19.10.20 230 (ЮЗ) 1000 м  дымка{гроза, ливн. осадки}  10/0 средняя 
[Ac und]
+14.3 +13.8 97 +22  1016  0.3  756  286           
03 19.10.20 350 (С) 4000 м  дымка  9/0 средняя 
[Ac As]
+12.9 +11.6 92 +16  1017.1  1.1  756  289  +12.9    12     
06 19.10.20 330 (СЗ) 10 км  {ливн. осадки}  9/0 средняя 
[Ac trans]
+13.3 +11.4 88 +18  1018.6  1.5  758  289  +12.4         
09 19.10.20 030 (СВ) 10 км    9/0 верхняя 
[Ci fib]
+17 +11.3 69 +21  1017.8  -0.8  757  285           
12 19.10.20 040 (СВ) 10 км    10/0 средняя 
[Ac und]
+16.2 +9.8 66 +19  1017  -0.8  756  286           
15 19.10.20 050 (СВ) 10 км  слаб. ливневой дождь  10/5 600 м кучево-дожд., средняя 
[Cb cap|Ac und]
+13.5 +10.9 84 +17  1016.9  -0.2  756  288    +17.5     
18 19.10.20 340 (С) 4000 м  слаб. ливневой дождь  10/6 600 м кучево-дожд., средняя 
[Cb cap|Ac und]
+10.7 +9.7 94 +12  1018.9  2.2  758  292           
21 19.10.20 330 (СЗ) 2000 м  дымка{ливн. осадки}  10/5 600 м кучево-дожд., средняя 
[Cb cap|Ac und]
+10.2 +9.4 95 +11  1020.7  1.7  759  293           
00 20.10.20 230 (ЮЗ) 4000 м  дымка{ливн. осадки}  10/0 средняя 
[Ac und]
+9.4 +8.4 93 +10  1022.3  1.6  760  295           
03 20.10.20 230 (ЮЗ) 4000 м  дымка  10/3 600 м кучево-дожд., средняя 
[Cb cap|Ac und]
+9.1 +8.1 93 +10  1023.4  1.1  761  295  +9    14     
06 20.10.20 260 (З) 10 км    ясно 
+11.2 +7.9 80 +11  1024.3  0.9  762  293           
09 20.10.20 270 (З) 10 км    4/4 600 м 
[Cu hum]
+13.9 +5.5 57 +14  1024.2  762  291           
12 20.10.20 310 (СЗ) 10 км    3/3 1000 м 
[Cu hum]
+14 +4.6 53 +15  1023.6  -0.6  761  291           
15 20.10.20 270 (З) 10 км    ясно 
+9.5 +2.1 60 +11  1024.3  0.5  762  296    +14.9       
18 20.10.20 210 (ЮЗ) 10 км    ясно 
+5.6 +2.8 82 +6  1025.2  0.8  762  301           
21 20.10.20 260 (З) 10 км    9/0 средняя 
[Ac trans]
+6.5 +1.8 72 +7  1026  0.8  763  300           
00 21.10.20 270 (З) 10 км    ясно 
+5.4 +2.6 82 +6  1026.6  0.6  763  301           
03 21.10.20 280 (З) 10 км    ясно 
+3.3 +0.9 84 +4  1028.2  1.5  764  304  +3.2        влажная 
06 21.10.20 280 (З) 10 км    ясно 
+6.9 +1.4 68 +7  1029.6  1.6  766  301  +2.3         
09 21.10.20 280 (З) 10 км    ясно 
+11.5 +0.9 48 +11  1029.1  -0.5  765  296           
12 21.10.20 270 (З) 10 км    3/0 верхняя 
[Ci fib]
+12.3 -0.6 41 +12  1028.1  -0.9  764  295           
Время (UTC), дата Ветер
(°,м/с) 
Видим.   Явления Облачность Т
(°С)
Тd
(°С)
f(%) Тe
(°С)
Pmin
(гПа)
dP
(гПа)
Po
(мм)
O2
(г/м3)
Тmin Tmax R s Состояние
почвы

Для получения пояснительной информации подведите курсор к названию столбца.

ПОГОДА в Зимовники - архив

Всё, что Вы хотите узнать о погоде в Зимовники - удобно и подробно!

Выберите нужную дату (начиная с 1 января 2019* года) и нажмите кнопку "Найти".
Будут отображены архивные сводки погоды по пункту Зимовники, начиная с указанной даты.


Отображать данные в формате CSV (для использования в таблицах Excel)


Внимание! Наш архив погоды предназначен исключительно для личного некоммерческого использования в познавательных целях. Если Вам необходимы официальные справки о состоянии погоды (для производственных, юридических, коммерческих и т.п. целей), обращайтесь в органы Росгидромета.

*Примечание: данная дата относится к архиву по метеостанциям СССР (Россия, СНГ, Балтия).
Архив по метеостанциям Зарубежной Европы и Азии (кроме Китая) хранится 10 дней, по другим регионам земного шара (Китай, Африка, Америка, Австралия, Океания) - 1 день.

Зимовники - район местоположения метеостанции


Название, широта, долгота, высота метеостанции:
Зимовники 47.2°ш. 42.5°д. 72 м над ур. моря [Российская Федерация]

Дополнительная информация

В oтличие oт бoльшинства пoгoдных сайтoв мы публикуем пoдрoбную метеoинфoрмацию в детальнoм прoфессиoнальнoм фoрмате.

Характеристики температуры и влажнoсти вoздуха измеряются на высoте 2 м в тени вдали oт зданий и деревьев.
Скoрoсть ветра измеряется на высoте 10 м (на урoвне рoста челoвека скoрoсть ветра ниже в 1.5-2 раза). Если метеoстанция нахoдится в гoрoде или в лесу, тo скoрoсть ветра занижена на 2-4 м/с пo сравнению с oткрытым местoм. Скoрoсть ветра над акватoриями крупных рек и oзёр, а также на вершинах хoлмoв на 2-5 м/с выше, чем в oбычных услoвиях.
Атмoсфернoе давление в разных тoчках местнoсти мoжет значительнo oтличаться oт давления на метеoстанции, в зависимoсти oт услoвий рельефа (при пoдъёме на 10 м давление пoнижается примернo на 1 мм рт.ст.).